Погода в Ларьяке

Погода в Ларьяке : погода сейчас, прогноз погоды и архив. Всё, что Вы хотите узнать о погоде в Ларьяке!

Хотите узнать прогноз погоды в Ларьяке? Тогда Вам сюда: Погода в Ларьяке

Поиск расширенной информации на нашем сайте:

Другие новости

Новости СМИ2

Главная страница сайта

Новости сайта

03.07.2017

Напоминаем, что на нашем специализированном сайте Метеоцентр.Азия вы можете получить высокодетализированные автоматические прогнозы погоды по пунктам России, СНГ и мира в авиационном формате (включающие направление и скорость ветра, видимость, явления погоды, количество и форму облачности, нижнюю и верхнюю границу облачности).


Погода в Ларьяке - сегодня

Время (UTC), дата Ветер
(°,м/с) 
Видим.   Явления Облачность Т
(°С)
Тd
(°С)
f(%) Тe
(°С)
Pmin
(гПа)
dP
(гПа)
Po
(мм)
O2
(г/м3)
Тmin Tmax R s Состояние
почвы
12 15.04.18 230 (ЮЗ) 20000 м  {ливн. осадки}  4/3 600 м кучево-дожд., средняя, верхняя 
[Cb cap|As trans|Ci fib]
+0.5 -2.1 83 995.4  0.7  741  298           
15 15.04.18 280 (З) 5{10}  20000 м    9/5 600 м кучево-дожд., средняя, верхняя 
[Cb cap|As trans|Ci fib]
-2.7 -8.6 64 -6  998  2.4  743  303    +1     
18 15.04.18 270 (З) 20000 м    8/0 верхняя 
[Ci fib]
-6.5 -11.3 69 -9  998.9  0.9  744  308           
21 15.04.18 250 (З) 20000 м    ясно 
-10 -12.3 83 -10  999.3  0.3  744  312           
00 16.04.18 250 (З) 20000 м    ясно 
-11.7 -13 90 -14  1000  0.6  745  315           
03 16.04.18 190 (Ю) 20000 м    3/0 средняя 
[Ac trans]
-5.6 -10.2 70 -5  1000.2  0.3  745  307  -11.8      39  равномерный
сухой снег
100% 
06 16.04.18 310 (СЗ) 20000 м    8/3 1000 м средняя 
[Cu med, cong|Ac trans]
-4 -11.3 57 -5  1000.1  745  306           
09 16.04.18 300 (СЗ) 20000 м    8/1 600 м средняя, верхняя 
[Sc diur, vesp|Ac As|Ci fib]
-2.5 -10.8 53 -4  1000.3  0.3  745  304           
12 16.04.18 290 (З) 20000 м    6/1 600 м средняя, верхняя 
[Sc|As trans|Ci fib]
-3.2 -12.9 47 -5  1000.5  0.1  745  305           
15 16.04.18 300 (СЗ) 20000 м    5/0 средняя, верхняя 
[As trans|Ci fib]
-7.3 -13.2 63 -9  1000.8  0.2  745  310    -1.4       
18 16.04.18 320 (СЗ) 20000 м    10/0 средняя 
[Ac As]
-9.3 -15.3 62 -12  1001.3  0.5  746  312           
00 17.04.18 290 (З) 4000 м  слаб. снег  10/0 средняя, верхняя 
[Ac As|Ci fib]
-14.4 -17.3 79 -18  1003.7  747  319           
03 17.04.18 290 (З) 4000 м    10/0 средняя, верхняя 
[As trans|Ci fib]
-13.1 -17.3 71 -18  1005.6  749  318  -14.5    0.7  36  равномерный
сухой снег
100% 
18 17.04.18 280 (З) 20000 м    5/0 верхняя 
[Ci fib]
-16.6 -21 69 -19  1016.5  1.8  757  326           
21 17.04.18 270 (З) 20000 м    ясно 
-20.1 -22.9 78 -23  1017.6  758  331           
00 18.04.18 250 (З) 20000 м    6/0 верхняя 
[Cs]
-20.5 -23 80 -23  1019.3  1.7  759  332           
03 18.04.18 270 (З) 20000 м    5/0 средняя, верхняя 
[Ac As|Ci fib]
-15.2 -20.3 65 -17  1021  1.9  760  326  -21.3      36  равномерный
сухой снег
100% 
06 18.04.18 260 (З) 20000 м    4/0 верхняя 
[Ci fib]
-12.4 -18.8 59 -17  1021.8  0.8  761  323           
09 18.04.18 270 (З) 20000 м    6/0 верхняя 
[Ci fib]
-9.6 -18.4 49 -13  1022  0.3  761  319           
12 18.04.18 270 (З) 20000 м    8/0 верхняя 
[Ci fib]
-8.1 -18.8 42 -8  1020.7  -1.2  760  317           
18 18.04.18 190 (Ю) 20000 м    ясно 
-12 -19 56 -12  1018.7  -1  758  321           
21 18.04.18 180 (Ю) 20000 м    6/0 средняя, верхняя 
[As trans|Ci fib]
-11.9 -17.5 63 -17  1016.5  -2.3  757  320           
00 19.04.18 180 (Ю) 20000 м    10/0 средняя, верхняя 
[As trans|Cs]
-9.9 -16.8 57 -13  1013.9  -2.4  755  317           
03 19.04.18 170 (Ю) 20000 м    10/1 600 м средняя 
[Sc|As trans]
-5.8 -14.4 51 -9  1011.6  -2.2  753  311  -12.6      37  равномерный
сухой снег
100% 
06 19.04.18 170 (Ю) 5{11}  20000 м    10/0 верхняя 
[Cs]
-0.6 -11.9 42 -4  1009  -2.4  752  305           
Время (UTC), дата Ветер
(°,м/с) 
Видим.   Явления Облачность Т
(°С)
Тd
(°С)
f(%) Тe
(°С)
Pmin
(гПа)
dP
(гПа)
Po
(мм)
O2
(г/м3)
Тmin Tmax R s Состояние
почвы

Для получения пояснительной информации подведите курсор к названию столбца.

ПОГОДА в Ларьяке - архив

Всё, что Вы хотите узнать о погоде в Ларьяке - удобно и подробно!

Выберите нужную дату (начиная с 1 января 2015* года) и нажмите кнопку "Найти".
Будут отображены архивные сводки погоды по пункту Ларьяк, начиная с указанной даты.


Отображать данные в формате CSV (для использования в таблицах Excel)


Внимание! Наш архив погоды предназначен исключительно для личного некоммерческого использования в познавательных целях. Если Вам необходимы официальные справки о состоянии погоды (для производственных, юридических, коммерческих и т.п. целей), обращайтесь в органы Росгидромета.

*Примечание: данная дата относится к архиву по метеостанциям СССР (Россия, СНГ, Балтия).
Архив по метеостанциям Зарубежной Европы и Азии (кроме Китая) хранится 10 дней, по другим регионам земного шара (Китай, Африка, Америка, Австралия, Океания) - 1 день.

Ларьяк - район местоположения метеостанции


Название, широта, долгота, высота метеостанции:
Ларьяк 61.1°ш. 80.3°д. 55 м над ур. моря [Российская Федерация]

Дополнительная информация

В oтличие oт бoльшинства пoгoдных сайтoв мы публикуем пoдрoбную метеoинфoрмацию в детальнoм прoфессиoнальнoм фoрмате.

Характеристики температуры и влажнoсти вoздуха измеряются на высoте 2 м в тени вдали oт зданий и деревьев.
Скoрoсть ветра измеряется на высoте 10 м (на урoвне рoста челoвека скoрoсть ветра ниже в 1.5-2 раза). Если метеoстанция нахoдится в гoрoде или в лесу, тo скoрoсть ветра занижена на 2-4 м/с пo сравнению с oткрытым местoм. Скoрoсть ветра над акватoриями крупных рек и oзёр, а также на вершинах хoлмoв на 2-5 м/с выше, чем в oбычных услoвиях.
Атмoсфернoе давление в разных тoчках местнoсти мoжет значительнo oтличаться oт давления на метеoстанции, в зависимoсти oт услoвий рельефа (при пoдъёме на 10 м давление пoнижается примернo на 1 мм рт.ст.).